This is the latest recevied weather packets stored in our database for station/object KC1OEK-13. If no packets are shown the sender has not sent any weather packets the latest 10 day(s).
| Time | Temp. | Humidity | Pressure | Rain* | Wind** | Luminosity | Snow |
|---|---|---|---|---|---|---|---|
| 1788121159 | 24.44° C | 75% | 1020.2 hPa | 0 mm | - | 239 W/m² | - |
| 1788120852 | 24.44° C | 75% | 1020.1 hPa | 0 mm | - | 179 W/m² | - |
| 1788120548 | 24.44° C | 73% | 1020.3 hPa | 0 mm | - | 170 W/m² | - |
| 1788120248 | 24.44° C | 72% | 1020.3 hPa | 0 mm | - | 138 W/m² | - |
| 1788119942 | 25° C | 73% | 1020.2 hPa | 0 mm | - | 107 W/m² | - |
| 1788119642 | 25° C | 73% | 1020.1 hPa | 0 mm | - | 163 W/m² | - |
| 1788119335 | 25° C | 70% | 1020.3 hPa | 0 mm | - | 197 W/m² | - |
| 1788119035 | 26.11° C | 69% | 1020.5 hPa | 0 mm | - | 244 W/m² | - |
| 1788118730 | 26.11° C | 68% | 1020.4 hPa | 0 mm | - | 299 W/m² | - |
| 1788118429 | 26.11° C | 68% | 1020.3 hPa | 0 mm | - | 457 W/m² | - |
| 1788118125 | 25.56° C | 70% | 1020.4 hPa | 0 mm | - | 768 W/m² | - |
| 1788117819 | 25.56° C | 70% | 1020.7 hPa | 0 mm | - | 242 W/m² | - |
| 1788117515 | 25° C | 69% | 1020.8 hPa | 0 mm | - | 150 W/m² | - |
| 1788117214 | 25° C | 70% | 1020.7 hPa | 0 mm | - | 333 W/m² | - |
| 1788116910 | 25° C | 71% | 1020.9 hPa | 0 mm | - | 230 W/m² | - |
| 1788116610 | 25° C | 70% | 1020.8 hPa | 0 mm | - | 194 W/m² | - |
| 1788116303 | 25° C | 69% | 1020.9 hPa | 0 mm | - | 233 W/m² | - |
| 1788115999 | 24.44° C | 69% | 1020.9 hPa | 0 mm | - | 267 W/m² | - |
| 1788115694 | 24.44° C | 69% | 1021.2 hPa | 0 mm | - | 231 W/m² | - |
| 1788115393 | 25° C | 68% | 1021.2 hPa | 0 mm | - | 223 W/m² | - |
| 1788115087 | 25.56° C | 68% | 1021.5 hPa | 0 mm | - | 274 W/m² | - |
| 1788114782 | 25° C | 67% | 1021.5 hPa | 0 mm | - | 270 W/m² | - |
| 1788114477 | 26.11° C | 68% | 1021.5 hPa | 0 mm | - | 351 W/m² | - |
| 1788114173 | 25.56° C | 67% | 1021.4 hPa | 0 mm | - | 399 W/m² | - |
| 1788113869 | 25° C | 67% | 1021.5 hPa | 0 mm | - | 380 W/m² | - |
* Rain latest hour (hover to see other rain measurements)
** Current wind speed in m/s (hover to see current wind gust speed)